星链-6153 (STARLINK-6153 )

导读 | 星芒AI

STARLINK-6153 是 SpaceX Starlink 项目中的一颗低轨通信卫星,属于第六批发射的 Starlink 卫星群。该卫星运行在约 550 公里的近地轨道,主要用于提供全球范围内的高速互联网服务。它采用先进的相控阵天线和激光通信技术,以提升网络连接的稳定性和传输效率。作为 Starlink 卫星网络的一部分,STARLINK-6153 有助于扩大 SpaceX 在全球卫星互联网市场的覆盖能力,特别是在偏远和网络基础设施薄弱的地区。

基本信息
目录编号:
56384
目录名称:
STARLINK-6153
国际标识:
2023-061L
轨道中心:
EARTH
卫星名称:
星链-6153
卫星全名:
星链-6153 (STARLINK-6153 )
卫星状态:
在轨 (已飞行915 天)
发射日期:
2023-05-04 UTC
国别 :
美国 (US)
星等 :
--
轨道信息
数据来源 国际轨道数据
星历时间: 2025-11-02T05:29:39+0800
2天前
查看轨道信息
半长轴: 6937.219km
偏心率: 0.0001375
轨道倾角: 43.005°
近地点辐角 266.505°
升交点赤经 171.643°
平近点角 93.564°
近地点: 558.13km
远地点: 560.038km
周期: 95.838分钟
每日圈数: 15.025354
详细信息
固有亮度:
5
最大亮度:
2.5
卫星平台:
Starlink v1.5
覆盖范围:
全球
运营商:
太空探索技术公司
运营商所在国:
美国
制造商(研发单位):
太空探索技术公司
制造商所在国:
美国
使用方式:
暂无
卫星简介
星链(Starlink)计划是由太空探索技术公司(SpaceX)提出的一个巨型低轨卫星互联网星座项目,计划在2019年至2024年间在太空搭建由约1.2万颗卫星组成的“星链”网络,其中1584颗将部署在地球上空550千米处的近地轨道,并从2020年开始工作。该卫星仍在工作。
2D轨道图
3D轨道图
轨道高度分析图
轨道倾角分析图
轨道综合分析图
查看轨道综合分析图